Preview of NWS' New Version of Forecast
This preview is not operational and should not be used for support decisions.
Latest weather observations around

Gadsden, Gadsden Municipal Airport (KGAD)

Using English Units (Switch to International System of Units)
Date/ Time (CDT) Wind (mph) Vis. (mi) Weather Sky Cond. Temp (°F) Rel. Humidity Wind Chill (°F) Heat Index (°F) Pressure Precip. (in)
Air Dwpt 6 hour Altimeter (inHg) Sea level (inHg) 1 hr 3 hr 6 hr
Max Min
Apr 20 19:56 Calm 10 Clear CLR 54 42     64%     30.27 30.28      
Apr 20 18:56 ENE 5 10 Clear CLR 63 38     40%     30.26 30.28      
Apr 20 17:56 NE 6 10 Clear CLR 68 34     28%     30.27 30.28      
Apr 20 16:56 NE 10 10 Clear CLR 68 33     27%     30.27 30.28      
Apr 20 15:56 ENE 11 10 Clear CLR 69 35     29%     30.28 30.29      
Apr 20 14:56 5 10 Clear CLR 66 36     33%     30.3 30.31      
Apr 20 13:56 ENE 9 10 Clear CLR 65 37     36%     30.33 30.34      
Apr 20 12:56 E 7 10 Clear CLR 63 35     35%     30.35 30.36      
Apr 20 11:56 NE 8 10 Clear CLR 60 35     39%     30.37 30.38      
Apr 20 10:56 E 11 10 Clear CLR 58 35     42%     30.37 30.39      
Apr 20 09:56 NE 13 10 Clear CLR 55 36     48%     30.36 30.38      
Apr 20 08:56 ENE 10 10 Clear CLR 52 35     52%     30.36 30.38      
Apr 20 07:56 ENE 8 10 Clear CLR 47 36     65% 43   30.36 30.37      
Apr 20 06:56 Calm 10 Clear CLR 39 35     86%     30.35 30.36      
Apr 20 05:56 N 6 10 Clear CLR 37 34     89% 32   30.31 30.33      
Apr 20 04:56 N 6 10 Clear CLR 38 33     82% 33   30.29 30.3      
Apr 20 03:56 N 6 10 Clear CLR 40 33     76% 36   30.28 30.3      
Apr 20 02:56 N 8 10 Clear CLR 41 33     73% 36   30.26 30.28      
Apr 20 01:56 N 9 10 Clear   43 34     70% 38   30.25 30.27      
Apr 20 00:56 NNE 11 10 Clear CLR 45 34     65% 39   30.26 30.27      
Apr 19 23:56 N 10 10 Clear CLR 46 34     63% 41   30.26 30.27      
Apr 19 22:56 N 8 10 Clear CLR 47 35     63% 43   30.27 30.28      
Apr 19 21:56 NNW 8 10 Clear CLR 47 35     63% 43   30.27 30.28      
Apr 19 19:56 NW 6 10 Clear CLR 50 35     56% 48   30.24 30.25      
Apr 19 18:56 N 10 10 Clear CLR 54 33     45%     30.22 30.23      
Apr 19 17:56 NNW 11 10 Clear CLR 57 35     44%     30.21 30.22      
Apr 19 16:56 NW 11 10 Clear CLR 58 35     42%     30.2 30.21      
Apr 19 15:56 NW 11 10 Clear CLR 59 36     42%     30.2 30.2      
Apr 19 14:56 NNW 14 10 Clear CLR 58 37     46%     30.2 30.21      
Apr 19 12:56 NW 13 10 Mostly Clear FEW046 59 41     51%     30.2 30.2      
Apr 19 11:56 NW 14 10 Mostly Cloudy BKN044 59 43     55%     30.19 30.19      
Apr 19 10:56 N 11 10 Partly Cloudy SCT042 58 41     53%     30.17 30.17      
Apr 19 09:56 NNW 10 10 Mostly Clear FEW039 57 41     55%     30.14 30.15      
Apr 19 08:56 NNW 10 10 Clear CLR 57 41     55%     30.11 30.11      
Apr 19 07:56 NNW 11 10 Clear CLR 56 43     62%     30.1 30.1      
Apr 19 06:56 NNW 15 10 Clear CLR 55 45     69%     30.06 30.06      
Apr 19 05:56 NW 10 10 Clear CLR 58 44     60%     30.02 30.02      
Apr 19 04:56 NW 13 10 Clear CLR 60 44     55%     29.99 29.99      
Apr 19 03:56 NW 10 10 Mostly Cloudy BKN070 64 56     75%     29.96 29.96      
Apr 19 02:56 WNW 11 10 Mostly Clear FEW025 66 60     81%     29.94 29.93      
Apr 19 01:56 W 13 10 Partly Cloudy SCT065 67 61     81%     29.94 29.93      
Apr 19 00:56 SW 5 10 Clear CLR 67 61     81%     29.95 29.94      
Apr 18 23:56 WSW 13 10 Clear CLR 68 60     76%     29.96 29.96      
Apr 18 22:56 WSW 11 10 Clear CLR 69 60     73%     29.96 29.96      
Apr 18 21:56 WSW 10 10 Mostly Clear FEW055 70 59     68%     29.95 29.95      
Apr 18 20:56 SW 7 10 Cloudy OVC060 73 57     57%   73 29.94 29.93      
Apr 18 19:56 WSW 10 10 Cloudy OVC060 75 56     52%   75 29.92 29.92      
Apr 18 18:56 WSW 10 10 Clear CLR 74 56     53%   74 29.91 29.92      
Apr 18 17:56 SW 14 10 Clear CLR 79 55     44%   79 29.9 29.9      
Apr 18 16:56 SW 11 10 Clear CLR 81 54     39%   81 29.89 29.9      
Apr 18 15:56 SW 15 10 Clear   81 52     37%   80 29.89 29.89      
Apr 18 14:56 SSW 13 10 Clear CLR 81 52     37%   80 29.91 29.91      
Apr 18 13:56 SW 16 10 Clear CLR 79 52     39%   78 29.93 29.93      
Apr 18 12:56 SW 15 10 Clear CLR 77 53     43%   76 29.96 29.96      
Apr 18 11:56 SW 14 10 Clear CLR 74 53     48%   73 29.97 29.98      
Apr 18 10:56 SSW 15 10 Clear CLR 71 53     53%   70 30 30      
Apr 18 09:56 SW 9 10 Clear CLR 66 57     73%     30.02 30.02      
Apr 18 09:04 6 10 Partly Cloudy SCT017 63 55     77%     30.01        
Apr 18 08:56 SSW 9 10 Mostly Cloudy BKN017 61 55     81%     30.01 30.02      
Apr 18 08:52 SSW 7 10 Mostly Cloudy BKN017 63 55     77%     30.01        
Apr 18 07:56 SSW 7 10 Clear CLR 58 54     87%     30.01 30.01      
Apr 18 06:56 Calm 10 Clear CLR 46 46     100%     30 30.01      
Notice The following observation data may not be complete
Apr 18 05:56 Calm 10 Clear CLR   45      %     29.99 30      
Notice The following observation data may not be complete
Apr 18 04:56 Calm 10 Clear CLR   46      %     29.96 29.97      
Apr 18 03:56 Calm 10 Clear CLR 51 48     89%     29.94 29.94      
Apr 18 02:56 Calm 10 Clear CLR 57 49     74%     29.93 29.93      
Apr 18 01:56 S 5 10 Clear CLR 56 49     77%     29.94 29.94      
Apr 18 00:56 S 5 10 Clear CLR 53 48     83%     29.94 29.94      
Apr 17 23:56 SSW 3 10 Clear CLR 53 49     86%     29.94 29.94      
Apr 17 22:56 Calm 10 Clear CLR 56 48     75%     29.94 29.95      
Apr 17 21:56 SW 5 10 Clear CLR 59 48     67%     29.95 29.95      
Apr 17 20:56 SSW 3 10 Clear CLR 63 46     54%     29.95 29.96      
Jun 12 04:56 Calm 10 Mostly Cloudy FEW028 BKN034 70 69     97%     30.15 30.18      
Jun 11 10:20 Calm 10 Mostly Cloudy BKN021 81 72     74%   85 30.18        
Jun 10 21:56 Calm 10 Clear   70 64     81%     30.11 30.14      
Jun 10 20:56 Calm 10 Clear CLR 74 64     71%   74 30.08 30.11      
Jun 10 03:56 Calm 10 Mostly Clear FEW070 60 60     100%     30.02 30.05      
Jun 08 22:56 Calm 10 Mostly Clear FEW060 62 60     93%     29.93 29.97      
Jun 07 18:56 N 9 10 Clear CLR 77 55     47%   77 29.85 29.89      
Jun 07 15:56 NNE 14 10 Clear CLR 82 54     38%   81 29.83 29.86      
Jun 07 13:56 N 10 10 Clear CLR 81 60     49%   82 29.83 29.87      
Jun 07 11:56 NE 10 10 Clear CLR 78 62     58%   78 29.85        
Jun 06 04:23 Calm 7 Partly Cloudy SCT003 70 70     100%     29.8        
Jun 05 23:56 Calm 10 Light Rain CLR 71 70     96%   72 29.84 29.86 0